| time (UTC) | temp F | wind direction | speed MPH | gust MPH | rain 1hr in | rain 24hr in | rain mn in | humidity % | barometer mb |
| 20260902155028 | 90 | 227 | 8.0 | 19.0 | 0.00 | 0.07 | 0.07 | 74 | 1014.8 |
| 20260902153855 | 89 | 224 | 8.0 | 16.0 | 0.00 | 0.07 | 0.07 | 73 | 1014.7 |
| 20260902153353 | 89 | 248 | 8.0 | 15.0 | 0.00 | 0.07 | 0.07 | 73 | 1014.7 |
| 20260902152844 | 89 | 232 | 8.0 | 17.0 | 0.00 | 0.07 | 0.07 | 73 | 1014.6 |
| 20260902152334 | 89 | 211 | 7.0 | 17.0 | 0.00 | 0.07 | 0.07 | 73 | 1014.6 |
| 20260902151823 | 89 | 277 | 7.0 | 17.0 | 0.00 | 0.07 | 0.07 | 72 | 1014.5 |
| 20260902151318 | 89 | 234 | 6.0 | 17.0 | 0.00 | 0.07 | 0.07 | 72 | 1014.4 |
| 20260902150156 | 89 | 277 | 7.0 | 13.0 | 0.00 | 0.07 | 0.07 | 73 | 1014.4 |
| 20260902145027 | 89 | 233 | 7.0 | 14.0 | 0.00 | 0.07 | 0.07 | 73 | 1014.3 |
| 20260902143844 | 88 | 227 | 7.0 | 15.0 | 0.00 | 0.07 | 0.07 | 73 | 1014.2 |
| 20260902143343 | 88 | 259 | 6.0 | 15.0 | 0.00 | 0.07 | 0.07 | 73 | 1014.2 |
| 20260902142830 | 88 | 240 | 6.0 | 16.0 | 0.00 | 0.07 | 0.07 | 74 | 1014.2 |
| 20260902142324 | 88 | 232 | 6.0 | 16.0 | 0.00 | 0.07 | 0.07 | 74 | 1014.2 |
| 20260902141811 | 88 | 234 | 6.0 | 16.0 | 0.00 | 0.07 | 0.07 | 74 | 1014.1 |
| 20260902140645 | 87 | 233 | 7.0 | 15.0 | 0.00 | 0.07 | 0.07 | 72 | 1014.2 |
| 20260902140152 | 88 | 247 | 7.0 | 13.0 | 0.00 | 0.07 | 0.07 | 76 | 1014.1 |
| 20260902135633 | 88 | 223 | 7.0 | 16.0 | 0.00 | 0.07 | 0.07 | 76 | 1014.1 |
| 20260902134519 | 88 | 237 | 9.0 | 16.0 | 0.00 | 0.07 | 0.07 | 75 | 1014.1 |
| 20260902134014 | 88 | 235 | 10.0 | 16.0 | 0.00 | 0.07 | 0.07 | 76 | 1014.1 |
| 20260902133453 | 87 | 219 | 9.0 | 15.0 | 0.00 | 0.07 | 0.07 | 76 | 1014.0 |
| 20260902132942 | 87 | 208 | 9.0 | 14.0 | 0.00 | 0.07 | 0.07 | 76 | 1014.1 |
| 20260902131820 | 87 | 203 | 9.0 | 18.0 | 0.00 | 0.07 | 0.07 | 75 | 1014.1 |
| 20260902131320 | 86 | 194 | 10.0 | 18.0 | 0.00 | 0.07 | 0.07 | 75 | 1014.0 |
| 20260902130807 | 86 | 200 | 10.0 | 18.0 | 0.00 | 0.07 | 0.07 | 75 | 1013.9 |
| 20260902130308 | 86 | 234 | 10.0 | 17.0 | 0.00 | 0.07 | 0.07 | 76 | 1013.9 |
| 20260902125147 | 86 | 223 | 11.0 | 11.0 | 0.00 | 0.07 | 0.07 | 75 | 1013.9 |
| 20260902124933 | 86 | 202 | 11.0 | 17.0 | 0.00 | 0.07 | 0.07 | 75 | 1013.9 |
| 20260902124427 | 86 | 208 | 11.0 | 17.0 | 0.00 | 0.07 | 0.07 | 75 | 1013.8 |
| 20260902123910 | 86 | 223 | 9.0 | 17.0 | 0.00 | 0.07 | 0.07 | 76 | 1013.7 |
| 20260902122741 | 85 | 204 | 7.0 | 15.0 | 0.00 | 0.07 | 0.07 | 76 | 1013.5 |
| 20260902120952 | 83 | 217 | 8.0 | 13.0 | 0.00 | 0.07 | 0.07 | 78 | 1013.4 |
| 20260902120444 | 83 | 205 | 7.0 | 13.0 | 0.00 | 0.07 | 0.07 | 79 | 1013.3 |
| 20260902115309 | 82 | 209 | 11.0 | 20.0 | 0.04 | 0.07 | 0.07 | 79 | 1013.3 |
| 20260902114747 | 82 | 196 | 14.0 | 41.0 | 0.07 | 0.07 | 0.07 | 79 | 1013.4 |
| 20260902114226 | 82 | 161 | 17.0 | 41.0 | 0.22 | 0.07 | 0.07 | 78 | 1013.3 |
| 20260902113721 | 84 | 186 | 21.0 | 41.0 | 0.51 | 0.04 | 0.05 | 76 | 1013.2 |
| 20260902113205 | 85 | 194 | 20.0 | 41.0 | 0.00 | 0.01 | 0.01 | 75 | 1013.0 |
| 20260902112644 | 87 | 226 | 14.0 | 29.0 | 0.00 | 0.00 | 0.00 | 74 | 1013.1 |
| 20260902112150 | 88 | 206 | 11.0 | 26.0 | 0.00 | 0.00 | 0.00 | 76 | 1013.1 |
| 20260902111036 | 88 | 212 | 10.0 | 24.0 | 0.00 | 0.00 | 0.00 | 76 | 1013.0 |
| 20260902110543 | 88 | 205 | 11.0 | 24.0 | 0.00 | 0.00 | 0.00 | 76 | 1013.1 |
| 20260902110023 | 88 | 219 | 12.0 | 23.0 | 0.00 | 0.00 | 0.00 | 75 | 1013.1 |
| 20260902105521 | 88 | 244 | 12.0 | 24.0 | 0.00 | 0.00 | 0.00 | 76 | 1013.1 |
| 20260902105018 | 88 | 224 | 11.0 | 24.0 | 0.00 | 0.00 | 0.00 | 76 | 1013.1 |
| 20260902104520 | 88 | 252 | 12.0 | 24.0 | 0.00 | 0.00 | 0.00 | 76 | 1013.0 |
| 20260902104014 | 88 | 207 | 13.0 | 24.0 | 0.00 | 0.00 | 0.00 | 76 | 1013.0 |
| 20260902102842 | 88 | 237 | 14.0 | 23.0 | 0.00 | 0.00 | 0.00 | 76 | 1012.7 |
| 20260902102333 | 88 | 192 | 14.0 | 24.0 | 0.00 | 0.00 | 0.00 | 77 | 1012.8 |
| 20260902101813 | 88 | 190 | 14.0 | 24.0 | 0.00 | 0.00 | 0.00 | 76 | 1012.8 |
| 20260902100643 | 88 | 223 | 13.0 | 23.0 | 0.00 | 0.00 | 0.00 | 76 | 1012.7 |
| 20260902100140 | 88 | 244 | 14.0 | 23.0 | 0.00 | 0.00 | 0.00 | 76 | 1012.6 |
| 20260902095620 | 88 | 217 | 15.0 | 25.0 | 0.00 | 0.00 | 0.00 | 76 | 1012.5 |
| 20260902095101 | 88 | 223 | 15.0 | 25.0 | 0.00 | 0.00 | 0.00 | 76 | 1012.5 |
| 20260902094605 | 88 | 219 | 14.0 | 25.0 | 0.00 | 0.00 | 0.00 | 76 | 1012.5 |
| 20260902094056 | 88 | 218 | 12.0 | 25.0 | 0.00 | 0.00 | 0.00 | 76 | 1012.5 |
| 20260902093535 | 88 | 214 | 12.0 | 30.0 | 0.00 | 0.00 | 0.00 | 76 | 1012.7 |
| 20260902092413 | 88 | 218 | 15.0 | 30.0 | 0.00 | 0.00 | 0.00 | 75 | 1012.6 |
| 20260902091914 | 88 | 220 | 15.0 | 30.0 | 0.00 | 0.00 | 0.00 | 75 | 1012.6 |
| 20260902091410 | 88 | 214 | 14.0 | 25.0 | 0.00 | 0.00 | 0.00 | 76 | 1012.5 |
| 20260902090852 | 88 | 185 | 16.0 | 25.0 | 0.00 | 0.00 | 0.00 | 76 | 1012.6 |
| 20260902090338 | 88 | 231 | 15.0 | 24.0 | 0.00 | 0.00 | 0.00 | 76 | 1012.6 |
| 20260902085840 | 88 | 199 | 14.0 | 27.0 | 0.00 | 0.00 | 0.00 | 77 | 1012.6 |
| 20260902085332 | 88 | 184 | 15.0 | 27.0 | 0.00 | 0.00 | 0.00 | 77 | 1012.6 |
| 20260902084823 | 88 | 199 | 15.0 | 27.0 | 0.00 | 0.00 | 0.00 | 76 | 1012.6 |
| 20260902084318 | 88 | 235 | 15.0 | 27.0 | 0.00 | 0.00 | 0.00 | 76 | 1012.6 |
| 20260902083822 | 88 | 207 | 15.0 | 25.0 | 0.00 | 0.00 | 0.00 | 76 | 1012.6 |
| 20260902083318 | 88 | 194 | 15.0 | 25.0 | 0.00 | 0.00 | 0.00 | 76 | 1012.6 |
| 20260902082808 | 88 | 207 | 16.0 | 24.0 | 0.00 | 0.00 | 0.00 | 76 | 1012.5 |
| 20260902082313 | 88 | 213 | 15.0 | 24.0 | 0.00 | 0.00 | 0.00 | 76 | 1012.5 |
| 20260902081751 | 88 | 190 | 15.0 | 23.0 | 0.00 | 0.00 | 0.00 | 75 | 1012.7 |
| 20260902080617 | 88 | 214 | 14.0 | 27.0 | 0.00 | 0.00 | 0.00 | 76 | 1012.8 |
| 20260902080107 | 88 | 204 | 14.0 | 27.0 | 0.00 | 0.00 | 0.00 | 75 | 1012.8 |
| 20260902075610 | 88 | 169 | 15.0 | 27.0 | 0.00 | 0.00 | 0.00 | 75 | 1012.8 |
| 20260902075114 | 88 | 212 | 15.0 | 27.0 | 0.00 | 0.00 | 0.00 | 75 | 1012.9 |
| 20260902074608 | 88 | 199 | 14.0 | 21.0 | 0.00 | 0.00 | 0.00 | 76 | 1012.8 |
| 20260902074105 | 88 | 224 | 14.0 | 25.0 | 0.00 | 0.00 | 0.00 | 75 | 1012.9 |
| 20260902073600 | 88 | 214 | 14.0 | 25.0 | 0.00 | 0.00 | 0.00 | 75 | 1012.9 |
| 20260902073100 | 88 | 196 | 15.0 | 25.0 | 0.00 | 0.00 | 0.00 | 75 | 1012.8 |
| 20260902072540 | 88 | 225 | 15.0 | 25.0 | 0.00 | 0.00 | 0.00 | 75 | 1012.9 |
| 20260902071411 | 88 | 192 | 13.0 | 23.0 | 0.00 | 0.00 | 0.00 | 75 | 1013.0 |
| 20260902070244 | 87 | 209 | 14.0 | 23.0 | 0.00 | 0.00 | 0.00 | 75 | 1013.0 |
| 20260902064438 | 88 | 213 | 12.0 | 21.0 | 0.00 | 0.00 | 0.00 | 75 | 1013.0 |
| 20260902063926 | 88 | 198 | 12.0 | 21.0 | 0.00 | 0.00 | 0.00 | 75 | 1012.9 |
| 20260902062803 | 87 | 196 | 13.0 | 20.0 | 0.00 | 0.00 | 0.00 | 75 | 1012.8 |
| 20260902062252 | 87 | 194 | 12.0 | 20.0 | 0.00 | 0.00 | 0.00 | 75 | 1012.7 |
| 20260902061734 | 87 | 204 | 12.0 | 20.0 | 0.00 | 0.00 | 0.00 | 76 | 1012.7 |
| 20260902061232 | 87 | 194 | 13.0 | 20.0 | 0.00 | 0.00 | 0.00 | 76 | 1012.7 |
| 20260902060723 | 87 | 200 | 13.0 | 20.0 | 0.00 | 0.00 | 0.00 | 75 | 1012.9 |
| 20260902060200 | 87 | 164 | 12.0 | 18.0 | 0.00 | 0.00 | 0.00 | 76 | 1012.8 |
| 20260902055649 | 87 | 188 | 12.0 | 18.0 | 0.00 | 0.00 | 0.00 | 76 | 1012.9 |
| 20260902053851 | 87 | 179 | 12.0 | 17.0 | 0.00 | 0.00 | 0.00 | 76 | 1012.8 |
| 20260902053349 | 87 | 187 | 12.0 | 19.0 | 0.00 | 0.00 | 0.00 | 77 | 1012.8 |
| 20260902052836 | 87 | 193 | 12.0 | 19.0 | 0.00 | 0.00 | 0.00 | 76 | 1012.7 |
| 20260902051049 | 87 | 190 | 10.0 | 18.0 | 0.00 | 0.00 | 0.00 | 76 | 1013.0 |
| 20260902050550 | 87 | 178 | 10.0 | 18.0 | 0.00 | 0.00 | 0.00 | 76 | 1013.1 |
| 20260902050043 | 87 | 204 | 11.0 | 15.0 | 0.00 | 0.00 | 0.00 | 76 | 1013.1 |
| 20260902045527 | 87 | 192 | 10.0 | 17.0 | 0.00 | 0.00 | 0.00 | 76 | 1013.0 |
| 20260902043122 | 87 | 178 | 10.0 | 15.0 | 0.00 | 0.00 | 0.00 | 75 | 1013.0 |
| 20260902042613 | 87 | 230 | 9.0 | 15.0 | 0.00 | 0.00 | 0.00 | 75 | 1013.0 |
| 20260902042115 | 87 | 193 | 9.0 | 15.0 | 0.00 | 0.00 | 0.00 | 74 | 1013.0 |
| 20260902041610 | 87 | 193 | 9.0 | 16.0 | 0.00 | 0.00 | 0.00 | 74 | 1013.2 |
| 20260902041114 | 88 | 186 | 10.0 | 16.0 | 0.00 | 0.00 | 0.00 | 75 | 1013.1 |
| 20260902040556 | 87 | 211 | 10.0 | 17.0 | 0.00 | 0.00 | 0.00 | 74 | 1013.2 |
| 20260902040048 | 87 | 215 | 9.0 | 17.0 | 0.00 | 0.00 | 0.00 | 74 | 1013.1 |
| 20260902035533 | 87 | 214 | 10.0 | 17.0 | 0.00 | 0.00 | 0.00 | 74 | 1013.1 |
| 20260902035034 | 87 | 229 | 9.0 | 17.0 | 0.00 | 0.00 | 0.00 | 74 | 1013.1 |
| 20260902034521 | 88 | 197 | 9.0 | 15.0 | 0.00 | 0.00 | 0.00 | 75 | 1013.1 |
| 20260902033358 | 88 | 198 | 8.0 | 17.0 | 0.00 | 0.00 | 0.00 | 74 | 1012.8 |
| 20260902032903 | 88 | 188 | 9.0 | 17.0 | 0.00 | 0.00 | 0.00 | 73 | 1012.8 |
| 20260902032344 | 88 | 184 | 10.0 | 18.0 | 0.00 | 0.00 | 0.00 | 72 | 1012.8 |
| 20260902031841 | 88 | 190 | 9.0 | 18.0 | 0.00 | 0.00 | 0.00 | 72 | 1012.7 |
| 20260902031328 | 88 | 207 | 8.0 | 18.0 | 0.00 | 0.00 | 0.00 | 72 | 1012.5 |
| 20260902030812 | 88 | 213 | 8.0 | 18.0 | 0.00 | 0.00 | 0.00 | 72 | 1012.4 |
| 20260902030305 | 88 | 177 | 8.0 | 14.0 | 0.00 | 0.00 | 0.00 | 72 | 1012.3 |
| 20260902025754 | 88 | 229 | 8.0 | 13.0 | 0.00 | 0.00 | 0.00 | 72 | 1012.3 |
| 20260902024630 | 87 | 218 | 8.0 | 14.0 | 0.00 | 0.00 | 0.00 | 71 | 1012.1 |
| 20260902024133 | 87 | 204 | 7.0 | 14.0 | 0.00 | 0.00 | 0.00 | 71 | 1012.1 |
| 20260902023622 | 88 | 211 | 6.0 | 13.0 | 0.00 | 0.00 | 0.00 | 71 | 1012.0 |
| 20260902023103 | 87 | 210 | 6.0 | 13.0 | 0.00 | 0.00 | 0.00 | 71 | 1012.1 |
| 20260902022604 | 87 | 187 | 6.0 | 12.0 | 0.00 | 0.00 | 0.00 | 70 | 1012.1 |
| 20260902021441 | 87 | 235 | 6.0 | 11.0 | 0.00 | 0.00 | 0.00 | 70 | 1012.0 |
| 20260902020301 | 87 | 204 | 6.0 | 10.0 | 0.00 | 0.00 | 0.00 | 71 | 1011.8 |
| 20260902015759 | 87 | 194 | 5.0 | 11.0 | 0.00 | 0.00 | 0.00 | 70 | 1011.7 |
| 20260902014611 | 87 | 219 | 6.0 | 11.0 | 0.00 | 0.00 | 0.00 | 70 | 1011.6 |
| 20260902014110 | 87 | 203 | 6.0 | 11.0 | 0.00 | 0.00 | 0.00 | 70 | 1011.5 |
| 20260902013554 | 87 | 230 | 5.0 | 11.0 | 0.00 | 0.00 | 0.00 | 71 | 1011.4 |
| 20260902013100 | 87 | 215 | 3.0 | 9.0 | 0.00 | 0.00 | 0.00 | 70 | 1011.4 |
| 20260902012554 | 87 | 214 | 2.0 | 6.0 | 0.00 | 0.00 | 0.00 | 70 | 1011.3 |
| 20260902012049 | 87 | 229 | 1.0 | 4.0 | 0.00 | 0.00 | 0.00 | 69 | 1011.4 |
| 20260902011531 | 87 | 228 | 1.0 | 2.0 | 0.00 | 0.00 | 0.00 | 69 | 1011.5 |
| 20260902010353 | 87 | 231 | 0.0 | 2.0 | 0.00 | 0.00 | 0.00 | 68 | 1011.5 |
| 20260902005233 | 87 | 290 | 1.0 | 2.0 | 0.00 | 0.00 | 0.00 | 68 | 1011.5 |
| 20260902004720 | 87 | 296 | 0.0 | 4.0 | 0.00 | 0.00 | 0.00 | 67 | 1011.6 |
| 20260902004221 | 87 | 321 | 0.0 | 4.0 | 0.00 | 0.00 | 0.00 | 67 | 1011.6 |
| 20260902003711 | 87 | 317 | 1.0 | 4.0 | 0.00 | 0.00 | 0.00 | 67 | 1011.7 |
| 20260902003211 | 88 | 2 | 2.0 | 4.0 | 0.00 | 0.00 | 0.00 | 66 | 1011.7 |
| 20260902002034 | 88 | 2 | 0.0 | 3.0 | 0.00 | 0.00 | 0.00 | 65 | 1011.8 |
| 20260902001533 | 88 | 2 | 1.0 | 6.0 | 0.00 | 0.00 | 0.00 | 65 | 1011.8 |
| 20260902001025 | 88 | 298 | 2.0 | 6.0 | 0.00 | 0.00 | 0.00 | 64 | 1011.7 |
| 20260902000523 | 88 | 283 | 2.0 | 6.0 | 0.00 | 0.00 | 0.00 | 64 | 1011.7 |
| 20260902000025 | 88 | 305 | 2.0 | 6.0 | 0.00 | 0.00 | 0.00 | 64 | 1011.7 |
| 20260901234825 | 89 | 219 | 2.0 | 6.0 | 0.00 | 0.00 | 0.00 | 64 | 1011.7 |
| 20260901234325 | 89 | 328 | 2.0 | 8.0 | 0.00 | 0.00 | 0.00 | 63 | 1011.8 |
| 20260901232535 | 89 | 296 | 3.0 | 9.0 | 0.00 | 0.00 | 0.00 | 63 | 1011.8 |
| 20260901232019 | 89 | 7 | 3.0 | 9.0 | 0.00 | 0.00 | 0.00 | 63 | 1011.7 |
| 20260901231519 | 89 | 303 | 2.0 | 8.0 | 0.00 | 0.00 | 0.00 | 63 | 1011.7 |
| 20260901231013 | 89 | 304 | 2.0 | 7.0 | 0.00 | 0.00 | 0.00 | 64 | 1011.8 |
| 20260901230458 | 89 | 296 | 3.0 | 8.0 | 0.00 | 0.00 | 0.00 | 63 | 1011.7 |
| 20260901225937 | 89 | 277 | 3.0 | 8.0 | 0.00 | 0.00 | 0.00 | 64 | 1011.8 |
| 20260901224754 | 88 | 302 | 3.0 | 10.0 | 0.00 | 0.00 | 0.00 | 64 | 1011.6 |
| 20260901223622 | 88 | 310 | 3.0 | 10.0 | 0.00 | 0.00 | 0.00 | 64 | 1011.8 |
| 20260901223110 | 88 | 357 | 3.0 | 10.0 | 0.00 | 0.00 | 0.00 | 63 | 1011.8 |
| 20260901222549 | 88 | 248 | 3.0 | 10.0 | 0.00 | 0.00 | 0.00 | 64 | 1011.9 |
| 20260901222050 | 88 | 286 | 3.0 | 10.0 | 0.00 | 0.00 | 0.00 | 64 | 1011.8 |
| 20260901221557 | 88 | 299 | 4.0 | 10.0 | 0.00 | 0.00 | 0.00 | 64 | 1011.8 |
| 20260901220416 | 88 | 15 | 3.0 | 10.0 | 0.00 | 0.00 | 0.00 | 64 | 1011.9 |
| 20260901215910 | 88 | 295 | 4.0 | 10.0 | 0.00 | 0.00 | 0.00 | 63 | 1011.7 |
| 20260901214735 | 88 | 292 | 2.0 | 9.0 | 0.00 | 0.00 | 0.00 | 62 | 1011.8 |
| 20260901214218 | 88 | 347 | 2.0 | 9.0 | 0.00 | 0.00 | 0.00 | 62 | 1011.9 |
| 20260901213721 | 88 | 269 | 2.0 | 10.0 | 0.00 | 0.00 | 0.00 | 63 | 1012.0 |
| 20260901213226 | 88 | 302 | 3.0 | 10.0 | 0.00 | 0.00 | 0.00 | 63 | 1011.9 |
| 20260901212720 | 87 | 335 | 3.0 | 10.0 | 0.00 | 0.00 | 0.00 | 63 | 1012.0 |
| 20260901211604 | 88 | 314 | 2.0 | 6.0 | 0.00 | 0.00 | 0.00 | 64 | 1012.1 |
| 20260901210425 | 87 | 318 | 2.0 | 5.0 | 0.00 | 0.00 | 0.00 | 65 | 1012.3 |
| 20260901205903 | 87 | 343 | 2.0 | 10.0 | 0.00 | 0.00 | 0.00 | 65 | 1012.3 |
| 20260901205346 | 86 | 283 | 4.0 | 10.0 | 0.00 | 0.00 | 0.00 | 65 | 1012.5 |
| 20260901204838 | 87 | 305 | 4.0 | 10.0 | 0.00 | 0.00 | 0.00 | 67 | 1012.5 |
| 20260901204332 | 87 | 273 | 3.0 | 10.0 | 0.00 | 0.00 | 0.00 | 69 | 1012.5 |
| 20260901203823 | 87 | 293 | 3.0 | 10.0 | 0.00 | 0.00 | 0.00 | 68 | 1012.5 |
| 20260901202645 | 87 | 298 | 3.0 | 10.0 | 0.00 | 0.00 | 0.00 | 69 | 1012.4 |
| 20260901202125 | 87 | 324 | 2.0 | 9.0 | 0.00 | 0.00 | 0.00 | 68 | 1012.4 |
| 20260901201623 | 86 | 327 | 2.0 | 9.0 | 0.00 | 0.00 | 0.00 | 69 | 1012.5 |
| 20260901201111 | 86 | 348 | 3.0 | 9.0 | 0.00 | 0.00 | 0.00 | 68 | 1012.5 |
| 20260901200550 | 86 | 18 | 4.0 | 10.0 | 0.00 | 0.00 | 0.00 | 69 | 1012.5 |
| 20260901200049 | 86 | 7 | 4.0 | 10.0 | 0.00 | 0.00 | 0.00 | 70 | 1012.5 |
| 20260901195535 | 86 | 299 | 4.0 | 10.0 | 0.00 | 0.00 | 0.00 | 69 | 1012.6 |
| 20260901195031 | 86 | 336 | 3.0 | 10.0 | 0.00 | 0.00 | 0.00 | 69 | 1012.5 |
| 20260901194520 | 86 | 316 | 2.0 | 8.0 | 0.00 | 0.00 | 0.00 | 71 | 1012.5 |
| 20260901194023 | 86 | 319 | 2.0 | 5.0 | 0.00 | 0.00 | 0.00 | 71 | 1012.6 |
| 20260901193501 | 86 | 327 | 2.0 | 10.0 | 0.00 | 0.00 | 0.00 | 72 | 1012.8 |
| 20260901193006 | 86 | 296 | 4.0 | 10.0 | 0.00 | 0.00 | 0.00 | 71 | 1012.8 |
| 20260901192506 | 86 | 357 | 4.0 | 10.0 | 0.00 | 0.00 | 0.00 | 71 | 1013.0 |
| 20260901192006 | 86 | 2 | 3.0 | 10.0 | 0.00 | 0.00 | 0.00 | 71 | 1013.1 |
| 20260901190839 | 86 | 334 | 5.0 | 10.0 | 0.00 | 0.00 | 0.00 | 71 | 1013.3 |
| 20260901190330 | 86 | 330 | 5.0 | 10.0 | 0.00 | 0.00 | 0.00 | 71 | 1013.3 |
| 20260901185818 | 86 | 289 | 5.0 | 10.0 | 0.00 | 0.00 | 0.00 | 71 | 1013.3 |
| 20260901185317 | 86 | 2 | 4.0 | 10.0 | 0.00 | 0.00 | 0.00 | 71 | 1013.3 |
| 20260901184815 | 86 | 357 | 3.0 | 9.0 | 0.00 | 0.00 | 0.00 | 71 | 1013.5 |
| 20260901184317 | 87 | 348 | 3.0 | 9.0 | 0.00 | 0.00 | 0.00 | 71 | 1013.6 |
| 20260901183810 | 87 | 345 | 3.0 | 9.0 | 0.00 | 0.00 | 0.00 | 70 | 1013.8 |
| 20260901183249 | 87 | 24 | 2.0 | 7.0 | 0.00 | 0.00 | 0.00 | 70 | 1013.9 |
| 20260901182737 | 87 | 302 | 2.0 | 10.0 | 0.00 | 0.00 | 0.00 | 70 | 1014.2 |
| 20260901181629 | 87 | 335 | 4.0 | 14.0 | 0.00 | 0.00 | 0.00 | 71 | 1014.0 |
| 20260901181112 | 86 | 17 | 4.0 | 14.0 | 0.00 | 0.00 | 0.00 | 71 | 1014.0 |
| 20260901175945 | 86 | 357 | 5.0 | 12.0 | 0.00 | 0.00 | 0.00 | 70 | 1013.9 |
| 20260901174837 | 86 | 2 | 6.0 | 15.0 | 0.00 | 0.00 | 0.00 | 72 | 1013.7 |
| 20260901174340 | 86 | 292 | 7.0 | 15.0 | 0.00 | 0.00 | 0.00 | 72 | 1013.8 |
| 20260901173834 | 86 | 7 | 8.0 | 15.0 | 0.00 | 0.00 | 0.00 | 72 | 1013.8 |
| 20260901173340 | 86 | 357 | 8.0 | 15.0 | 0.00 | 0.00 | 0.00 | 73 | 1013.9 |
| 20260901172848 | 86 | 12 | 9.0 | 15.0 | 0.00 | 0.00 | 0.00 | 73 | 1013.9 |
| 20260901172332 | 86 | 13 | 9.0 | 15.0 | 0.00 | 0.00 | 0.00 | 72 | 1013.9 |
| 20260901171827 | 86 | 2 | 7.0 | 15.0 | 0.00 | 0.00 | 0.00 | 72 | 1014.0 |
| 20260901170656 | 86 | 7 | 6.0 | 14.0 | 0.00 | 0.00 | 0.00 | 73 | 1014.2 |
| 20260901170202 | 86 | 12 | 7.0 | 14.0 | 0.00 | 0.00 | 0.00 | 73 | 1014.4 |
| 20260901165702 | 86 | 2 | 8.0 | 14.0 | 0.00 | 0.00 | 0.00 | 73 | 1014.4 |
| 20260901165155 | 86 | 329 | 8.0 | 14.0 | 0.00 | 0.00 | 0.00 | 74 | 1014.5 |
| 20260901164652 | 86 | 2 | 7.0 | 14.0 | 0.00 | 0.00 | 0.00 | 74 | 1014.6 |
| 20260901164157 | 86 | 2 | 6.0 | 14.0 | 0.00 | 0.00 | 0.00 | 75 | 1014.6 |
| 20260901163637 | 85 | 18 | 7.0 | 13.0 | 0.00 | 0.00 | 0.00 | 75 | 1014.6 |
| 20260901163140 | 85 | 357 | 8.0 | 14.0 | 0.00 | 0.00 | 0.00 | 75 | 1014.7 |
| 20260901162642 | 85 | 16 | 8.0 | 14.0 | 0.00 | 0.02 | 0.00 | 75 | 1014.8 |
| 20260901162127 | 85 | 59 | 8.0 | 14.0 | 0.00 | 0.02 | 0.00 | 75 | 1014.8 |
| 20260901161617 | 85 | 335 | 8.0 | 14.0 | 0.00 | 0.02 | 0.00 | 76 | 1014.8 |
| 20260901161107 | 85 | 48 | 9.0 | 17.0 | 0.00 | 0.02 | 0.00 | 76 | 1014.8 |
| 20260901160614 | 85 | 85 | 9.0 | 17.0 | 0.00 | 0.02 | 0.00 | 76 | 1014.9 |
| 20260901155607 | 85 | 29 | 9.0 | 17.0 | 0.00 | 0.02 | 0.00 | 76 | 1014.6 |